Current Conditions for Foresthill, CA. Clear skies, Dry   
Visibility: 10 miles
Foresthill Advisory text: No Warning

  Summary / Temperature 

Current Temperature
66.7°F
19.3°C
(24/hr Ago)
69.9°F
(Apparent temp)
65.3°F
Comfortable
Wind Chill Graphs
66.7°F 

66.7°F/ 19.3°C
 --- Virtual Temp: 68.8°F ---

 Temp Rate:

 24/hr Difference:

 Avg Running Temp:

 Todays High:

 Todays Low:

 Y-days High:

 Y-days Low:

 Todays WChill:

 Y-days WChill:

 Evapotranspiration:

-2.6°F/hr 

-3.2°F

68.4°F

84.8°F 2:13pm

65.2°F 6:39am

87.4°F 1:47pm

66.3°F 7:34am

64.7°F 7:13am

66.3°F 8:02am

0.187 in

115' Above Ground

 Temperature:

 6'AGL VRS 115'AGL:

 Avg Running Temp:

 Humidity:

 Todays High:

 Todays Low:

 Y-days High:

 Y-days Low:

69.0°F 

+2.3°F

70.3°F

39% 

81.0°F 2:06pm

67.0°F 6:25am

85.0°F 12:55pm

69.0°F 5:36am

Temp & Humidity Graphs

  Wind 

Wind Speed

 Calm

Gusting to

 2.0 mph

Calm

219°  

Calm

 Avg speed:

 Wind Run:

 Peak Gust:

Calm 

31.0 miles

  17.0 mph 3:15pm

  Almanac  

Moon age: 28 days,11 hours,34 minutes,1%

New moon
0%
Illuminated
29 days in cycle

 Moonrise:

 Moonset:

 Sunrise:

 Sunset:

 Solar Noon:

5:48am

7:17pm

6:33am

7:35pm

1:03pm

2min 26s less daylight tomorrow 

  Solar Radiation 

(Current Solar)
  No Sun Light
(Todays High)
 856 W/m2@12:58pm

Rain

 Rain Today:

 Rain Rate (/hr):

 Rain last hour:

 Rain Yesterday:

 This Month:

 Season Total:

96 Days Since Last Rain Day

0.00 in

0.000 in

0.00 in

0.00 in

0.00 in

0.00 in

Updated Time

Updated: 8/31/16  10:35pm

(Updated  sec ago)

Humidity & Barometer

 Humidity:

 Wetbulb:

 Dew Point:

 Barometer:

44% 

55.4°F 

44.1°F 

29.890 inHg 

 Baro Trend:  Steady 
Northern Calif
Preparedness
Fire 
Level 

    UV Index  

(Current UV)
0.0  None
(Todays High) @ 12:55pm
7.6   High

Weather Underground 5 day Forecast

Thu Fri Sat Sun Mon
Clear Partly Cloudy Partly Cloudy Partly Cloudy Clear
Clear Partly Cloudy Partly Cloudy Partly Cloudy Clear
85° 84° 85° 84° 88°
56° 58° 56° 55° 60°

Foresthill Probe 2 Stats  
Foresthill Probe 2: is located on Thomas Street
at 3000 feet. The main Foresthill Weather site
is located on Melody ln at the 2860 foot elevation

Calm
63.6°F
17.6°C
Temp Rate:
-2.3°F
Calm
Gusting to
None
(Humidity)
48%
Calm
92°  
Updated: 31/08/16 - 22:32:09
 Todays High: 84.4°F 14:20
 Todays Low: 62.0°F 06:43
 Rain Today: 0.00 in
 Season Total: 0.00 in

Foresthill Wx: Monthly,Yearly, Highs and Lows 

Foresthill  
This Weather Data is coming from the main Foresthill
Weather site located on Melody ln at the 2860 foot
elevation
Not Foresthill Probe 2
Weather Data
Month
  High
Month
  Low
Year
High
Year
Low
Temp 93.1°F
8/14/16
62.9°F
8/7/16
96.7°F
7/27/16
28.4°F
2/1/16
Humidity 62%
8/11/16
12%
8/4/16
100%
1/6/16
12%
8/4/16
Heat Index 90.0°F
8/13/16
63.1°F
8/6/16
93.3°F
7/27/16
33.3°F
2/1/16
Wind Chill 93.1°F
8/14/16
61.2°F
8/7/16
96.7°F
7/27/16
15.8°F
2/1/16
Wind Gust 21 mph
8/2/16
0 mph
8/1/16
48 mph
2/17/16
0 mph
1/1/16
Barometer 30.05 in
8/28/16
29.76 in
8/9/16
30.56 in
2/3/16
29.44 in
2/17/16
ET 0.24 in
8/3/16
0.00 in
8/1/16
0.27 in
6/22/16
0.00 in
1/1/16
Dew Point 58.2°F
8/19/16
26.9°F
8/6/16
64.3°F
6/4/16
19.9°F
1/1/16
Infrared Satellite Regional Radar Satellite Imagery Sacramento,CA.  (click to enlarge)
NWS Weather Forecast - Outlook: Tonight and Thursday
Tonight

Tonight: Clear, with a low around 62. East wind 5 to 7 mph.
Clear

Lo 62 °F
NWS forecast: Clear, with a low around 62. East wind 5 to 7 mph.
Thursday

Thursday: Sunny, with a high near 82. East wind 5 to 8 mph becoming southwest in the morning.
Sunny

Hi 82 °F
NWS forecast: Sunny, with a high near 82. East wind 5 to 8 mph becoming southwest in the morning.
NWS Weather Forecast - Summary
Updated: Wednesday, August 31, 2016 - 2:48pm (PDT)
YR.NO 10 Day Weather forecast
Last update: 08/31/2016 @ 12:27
Next update: 09/01/2016 @ 01:00
Provided by: 22
      Temperature Precipitation Pressure Wind  
Today
08/31/2016
20:00 23:00 66°F   29.88 inHg Light air from south-southwest 3 mph
  23:00 05:00 63°F   29.91 inHg Light air from southeast 3 mph
    (Click to enlarge)
meteogram

    Forecast for next 9 days

      Temperature Precip Pressure Wind  
Thursday
09/01/2016
05:00 11:00 54°F   29.90 inHg Light air from east-northeast 2 mph
  11:00 17:00 77°F   29.92 inHg Light breeze from southwest 5 mph
  17:00 23:00 77°F   29.86 inHg Light breeze from southwest 6 mph
  23:00 05:00 61°F   29.92 inHg Light air from south-southeast 2 mph
      Temperature Precip Pressure Wind  
Friday
09/02/2016
05:00 11:00 52°F   29.88 inHg Light breeze from east-northeast 4 mph
  11:00 17:00 75°F   29.90 inHg Light breeze from west-southwest 6 mph
  17:00 23:00 77°F   29.82 inHg Light breeze from west-southwest 6 mph
  23:00 05:00 61°F   29.83 inHg Light air from east-southeast 2 mph
      Temperature Precip Pressure Wind  
Saturday
09/03/2016
05:00 11:00 55°F   29.78 inHg Light air from east-northeast 3 mph
  11:00 17:00 75°F   29.81 inHg Light breeze from west-southwest 6 mph
  17:00 23:00 77°F   29.74 inHg Light breeze from west-southwest 5 mph
  23:00 05:00 61°F   29.78 inHg Light air from east-southeast 2 mph
      Temperature Precip Pressure Wind  
Sunday
09/04/2016
05:00 11:00 54°F   29.75 inHg Light breeze from east-northeast 5 mph
  11:00 17:00 72°F   29.77 inHg Light breeze from southwest 7 mph
  17:00 23:00 73°F   29.70 inHg Light breeze from southwest 6 mph
  23:00 05:00 57°F   29.74 inHg Light air from east 2 mph
      Temperature Precip Pressure Wind  
Monday
09/05/2016
05:00 11:00 52°F   29.72 inHg Light air from east-northeast 3 mph
  11:00 17:00 72°F   29.76 inHg Light breeze from west-southwest 6 mph
  17:00 23:00 73°F   29.72 inHg Light breeze from west-southwest 5 mph
  23:00 05:00 59°F   29.78 inHg Light air from north-northeast 2 mph
      Temperature Precip Pressure Wind  
Tuesday
09/06/2016
05:00 11:00 52°F   29.80 inHg Light breeze from east-northeast 5 mph
  11:00 17:00 77°F   29.86 inHg Light breeze from west 4 mph
  17:00 23:00 81°F   29.83 inHg Light breeze from west 5 mph
  23:00 05:00 61°F   29.90 inHg Light air from east-northeast 2 mph
      Temperature Precip Pressure Wind  
Wednesday
09/07/2016
05:00 11:00 54°F   29.91 inHg Light breeze from east-northeast 6 mph
  11:00 17:00 82°F   29.97 inHg Light air from west-southwest 3 mph
  17:00 23:00 84°F   29.92 inHg Light breeze from west 6 mph
  23:00 05:00 64°F   29.97 inHg Light air from east 3 mph
      Temperature Precip Pressure Wind  
Thursday
09/08/2016
05:00 11:00 55°F   29.97 inHg Light breeze from east-northeast 5 mph
  11:00 17:00 82°F   29.99 inHg Light air from west-southwest 3 mph
  17:00 23:00 84°F   29.91 inHg Light breeze from west-southwest 5 mph
  23:00 05:00 64°F   29.93 inHg Light air from east 2 mph
      Temperature Precip Pressure Wind  
Friday
09/09/2016
05:00 11:00 57°F   29.89 inHg Light breeze from east-northeast 6 mph
  11:00 17:00 84°F   29.91 inHg Light breeze from southwest 5 mph
  17:00 23:00 84°F   29.83 inHg Light breeze from southwest 7 mph
  23:00 05:00 66°F   29.88 inHg Light air from east 3 mph
How Close Are We To this Month's Temperature Record ?
Updated Wednesday, Aug 31, 2016- 10:30:00 PM

Current Temperature: 66.7°F

August's High: Temperature Record 97.8°F - Set on Sat, Aug 11, 2012 - 2:34:00 PM
We are currently 31.1°F Less than this Month's record High

August's Low: Temperature Record 57.5°F - Set on Sun, Aug 30, 2015 - 7:31:00 AM
We are currently 9.2°F More than this Month's record Low

        Records began on 03 November 2011.

Weather History For Thursday, September 1, 2016


On this Day - In Weather History ...
Data courtesy of weatherforyou.com
powered by Cumulus v1.9.3 (1059)
Ambient Weather VWS v14.00
Top Contact Website Map Copyright © 2007 - 2016 Foresthillweather.com Never base important decisions on this or any weather information obtained from the Internet